ONEWEB-0717 (55178 NORAD) Tracking and Keplerian Element Data

This shows tracking and keplerian element data for the satellite.

Feedback or suggestion? Click here.




ElementValue
Catalog55178
NameONEWEB-0717
Epoch Orbit130
Epoch Day13.91667824
Epoch Year2023
RAAN284.1422
Inclination86.5095
Eccentricity0.0009027
Argument of Perigee199.5596
Mean Anonmoly62.5589
Mean Motion14.90679738
Decay Rate-0.00049814
L11 55178U 23004AQ 23013.91667824 -.00049814 00000+0 -51234-2 0 9991
L22 55178 86.5095 284.1422 0009027 199.5596 62.5589 14.90679738 1309



Live tracking and technical data element details for ONEWEB-0717 (NORAD 55178). ONEWEB-0717 can be tracked NOW for your location showing map with azimuth and elevation plus other details from your city location.







IsCatalogInMostPopularTable: catalog: 55178, numindb: 4
Update: records affected: 1



GetName: 55178 ONEWEB-0717

Hit Count: updated at: Tue, 07 Feb 2023 14:16:05 GMT